Weather History for KDTW - February, 2011

Change the Weather History Date:

Tuesday, February 22, 2011

  Actual Average Record
Temperature  
Mean Temperature 16 °F 30 °F  
Max Temperature 24 °F 37 °F 65 °F (1930)
Min Temperature 7 °F 22 °F -5 °F (1907)
Degree Days  
Heating Degree Days 49 35  
Month to date heating degree days 890 826  
Since 1 July heating degree days 4517 4346  
Cooling Degree Days 0 0  
Month to date cooling degree days 0 0  
Year to date cooling degree days 0 0  
Moisture  
Dew Point 6 °F    
Average Humidity 63    
Maximum Humidity 76    
Minimum Humidity 50    
Precipitation  
Precipitation 0.00 in 0.08 in 2.28 in (1990)
Month to date precipitation 2.39 1.55  
Year to date precipitation 3.92 3.51  
Snow  
Snow 0.00 in 0.40 in 6.40 in (2010)
Month to date snowfall 27.0 8.1  
Since 1 July snowfall 54.2 31.8  
Snow Depth 9.00 in    
Sea Level Pressure  
Sea Level Pressure 30.25 in    
Wind  
Wind Speed 8 mph (ENE)    
Max Wind Speed 15 mph    
Max Gust Speed 20 mph    
Visibility 10 miles    
Events      
T = Trace of Precipitation, MM = Missing Value Source: NWS Daily Summary

Daily Weather History Graph

Daily Weather History Graph

Search for Another Location

Airport or City:

Trip Planner

Search our weather history database for the weather conditions in past years. The results will help you decide how hot, cold, wet, or windy it might be!

Date:

Astronomy

Feb. 22, 2011 Rise Set
Actual Time 7:19 AM EST 6:14 PM EST
Civil Twilight 6:51 AM EST 6:42 PM EST
Nautical Twilight 6:18 AM EST 7:15 PM EST
Astronomical Twilight 5:46 AM EST 7:47 PM EST
Moon No Moon Rise 9:17 AM EST (2/22)
Length of Visible Light 11h 51m
Length of Day
10h 54m
Waning Gibbous, 75% of the Moon is Illuminated
Feb 22
Waning Gibbous
Feb 24
Last Quarter
Mar 4
New
Mar 12
First Quarter
Mar 19
Full

Hourly Weather History & Observations

Time (EST) Temp. Windchill Dew Point Humidity Pressure Visibility Wind Dir Wind Speed Gust Speed Precip Events Conditions
12:53 AM 17.1 °F 4.3 °F 5.0 °F 59% 30.09 in 10.0 mi NE 11.5 mph - N/A   Overcast
1:53 AM 16.0 °F 3.6 °F 5.0 °F 62% 30.09 in 10.0 mi NE 10.4 mph - N/A   Overcast
2:53 AM 15.1 °F 3.3 °F 3.9 °F 61% 30.10 in 8.0 mi NE 9.2 mph - N/A   Overcast
3:53 AM 15.1 °F 1.8 °F 3.9 °F 61% 30.11 in 10.0 mi NE 11.5 mph - N/A   Overcast
4:53 AM 14.0 °F -0.2 °F 1.9 °F 59% 30.13 in 10.0 mi NE 12.7 mph - N/A   Mostly Cloudy
5:53 AM 14.0 °F -0.2 °F 1.0 °F 56% 30.14 in 10.0 mi NE 12.7 mph - N/A   Mostly Cloudy
6:53 AM 14.0 °F 1.2 °F 1.9 °F 59% 30.17 in 10.0 mi NE 10.4 mph - N/A   Overcast
7:53 AM 14.0 °F 1.2 °F 1.9 °F 59% 30.19 in 10.0 mi NE 10.4 mph - N/A   Overcast
8:53 AM 15.1 °F 3.3 °F 3.0 °F 59% 30.22 in 10.0 mi ENE 9.2 mph 19.6 mph N/A   Scattered Clouds
9:53 AM 17.1 °F 5.0 °F 5.0 °F 59% 30.24 in 10.0 mi ENE 10.4 mph - N/A   Scattered Clouds
10:53 AM 18.0 °F 4.8 °F 7.0 °F 62% 30.26 in 10.0 mi NE 12.7 mph - N/A   Scattered Clouds
11:53 AM 19.0 °F 8.2 °F 9.0 °F 65% 30.28 in 10.0 mi East 9.2 mph - N/A   Partly Cloudy
12:53 PM 19.9 °F 10.1 °F 9.0 °F 62% 30.27 in 10.0 mi ENE 8.1 mph - N/A   Partly Cloudy
1:53 PM 21.9 °F 12.5 °F 10.0 °F 60% 30.27 in 10.0 mi ENE 8.1 mph - N/A   Partly Cloudy
2:53 PM 23.0 °F 12.4 °F 7.0 °F 50% 30.28 in 10.0 mi NE 10.4 mph 17.3 mph N/A   Clear
3:53 PM 23.0 °F 13.1 °F 7.0 °F 50% 30.28 in 10.0 mi ENE 9.2 mph - N/A   Clear
4:53 PM 23.0 °F 13.1 °F 6.1 °F 48% 30.29 in 10.0 mi ENE 9.2 mph - N/A   Clear
5:53 PM 21.9 °F 15.7 °F 8.1 °F 55% 30.31 in 10.0 mi East 4.6 mph - N/A   Clear
6:53 PM 19.0 °F 13.9 °F 8.1 °F 62% 30.35 in 10.0 mi SE 3.5 mph - N/A   Clear
7:53 PM 18.0 °F - 7.0 °F 62% 30.36 in 10.0 mi Calm Calm - N/A   Clear
8:41 PM 17.6 °F - 8.6 °F 68% 30.32 in 10.0 mi Calm Calm - N/A   Clear
8:53 PM 17.1 °F - 8.1 °F 68% 30.36 in 10.0 mi Calm Calm - N/A   Clear
9:53 PM 12.9 °F - 6.1 °F 74% 30.36 in 9.0 mi Calm Calm - N/A   Clear
10:53 PM 12.9 °F - 6.1 °F 74% 30.35 in 9.0 mi Calm Calm - N/A   Clear
11:53 PM 7.0 °F - 5.0 °F 92% 30.36 in 7.0 mi Calm Calm - N/A   Clear